When you browse on this site, cookies collect data to enhance your experience and personalize the content and advertising you see.
Visit our Privacy Policy to learn more. By continuing to use the site, you agree to this use of cookies and data.
  • In Portugal
  • List of Countries
  • For 7 days
  • Water Temperature
  • Satellite Maps
  • Weather Map
  • Weather Widgets
  • user-avatar
    Login

    Hourly Weather Skalnyy

    Today, 23 July, Tuesday

    Time Temperature Precipitation Wind Pressure Humidity
    00:00 +12°C° 0 mm 0 mps 727 mmHg 94%
    01:00 +12°C° 0 mm 0 mps 727 mmHg 94%
    02:00 +12°C° 0 mm 0 mps 727 mmHg 95%
    03:00 +11°C° 0 mm 0 mps 727 mmHg 95%
    04:00 +11°C° 0 mm 0 mps 727 mmHg 95%
    05:00 +13°C° 0 mm 0 mps 727 mmHg 92%
    06:00 +14°C° 0 mm 0 mps 727 mmHg 88%
    07:00 +16°C° 0 mm 0 mps 728 mmHg 85%
    08:00 +19°C° 0 mm 1 mps 728 mmHg 76%
    09:00 +21°C° 0 mm 1 mps 728 mmHg 67%
    10:00 +23°C° 0 mm 1 mps 728 mmHg 58%
    11:00 +24°C° 0.1 mm 1 mps 728 mmHg 55%
    12:00 +24°C° 0.1 mm 1 mps 728 mmHg 52%
    13:00 +25°C° 0.1 mm 2 mps 729 mmHg 49%
    14:00 +24°C° 0.5 mm 2 mps 729 mmHg 60%
    15:00 +23°C° 0.5 mm 2 mps 729 mmHg 72%
    16:00 +21°C° 0.5 mm 2 mps 729 mmHg 84%
    17:00 +20°C° 0.4 mm 2 mps 729 mmHg 87%
    18:00 +19°C° 0.4 mm 2 mps 729 mmHg 89%
    19:00 +18°C° 0.4 mm 2 mps 729 mmHg 92%
    20:00 +17°C° 0.2 mm 2 mps 729 mmHg 93%
    21:00 +16°C° 0.2 mm 2 mps 729 mmHg 95%
    22:00 +15°C° 0.2 mm 2 mps 729 mmHg 96%
    23:00 +15°C° 0 mm 2 mps 730 mmHg 96%

    Tomorrow, 24 July, Wednesday

    Time Temperature Precipitation Wind Pressure Humidity
    00:00 +15°C° 0 mm 2 mps 730 mmHg 96%
    01:00 +14°C° 0 mm 2 mps 730 mmHg 96%
    02:00 +14°C° 0 mm 2 mps 730 mmHg 96%
    03:00 +14°C° 0 mm 1 mps 731 mmHg 96%
    04:00 +13°C° 0 mm 1 mps 731 mmHg 96%
    05:00 +14°C° 0 mm 1 mps 731 mmHg 92%
    06:00 +16°C° 0 mm 1 mps 731 mmHg 89%
    07:00 +18°C° 0 mm 1 mps 732 mmHg 86%
    08:00 +21°C° 0 mm 1 mps 732 mmHg 72%
    09:00 +23°C° 0 mm 1 mps 732 mmHg 58%
    10:00 +26°C° 0 mm 1 mps 733 mmHg 44%
    11:00 +26°C° 0 mm 2 mps 733 mmHg 42%
    12:00 +27°C° 0 mm 2 mps 733 mmHg 39%
    13:00 +27°C° 0 mm 2 mps 733 mmHg 36%
    14:00 +27°C° 0 mm 2 mps 733 mmHg 40%
    15:00 +27°C° 0 mm 1 mps 733 mmHg 43%
    16:00 +26°C° 0 mm 1 mps 733 mmHg 47%
    17:00 +25°C° 0 mm 1 mps 733 mmHg 53%
    18:00 +24°C° 0 mm 1 mps 734 mmHg 60%
    19:00 +22°C° 0 mm 1 mps 734 mmHg 67%
    20:00 +21°C° 0 mm 1 mps 734 mmHg 67%
    21:00 +21°C° 0 mm 1 mps 734 mmHg 67%
    22:00 +18°C° 0 mm 0 mps 734 mmHg 67%
    23:00 +17°C° 0 mm 0 mps 735 mmHg 69%

    Day after tomorrow, 25 July, Thursday

    Time Temperature Precipitation Wind Pressure Humidity
    00:00 +17°C° 0 mm 0 mps 735 mmHg 70%
    01:00 +16°C° 0 mm 0 mps 735 mmHg 72%
    02:00 +16°C° 0 mm 0 mps 735 mmHg 73%
    03:00 +15°C° 0 mm 0 mps 735 mmHg 75%
    04:00 +15°C° 0 mm 0 mps 735 mmHg 77%
    05:00 +16°C° 0 mm 0 mps 736 mmHg 74%
    06:00 +18°C° 0 mm 0 mps 736 mmHg 71%
    07:00 +19°C° 0 mm 0 mps 736 mmHg 68%
    08:00 +21°C° 0 mm 0 mps 736 mmHg 62%
    09:00 +23°C° 0 mm 0 mps 737 mmHg 56%
    10:00 +25°C° 0 mm 0 mps 737 mmHg 50%
    11:00 +25°C° 0 mm 0 mps 737 mmHg 48%
    12:00 +27°C° 0 mm 1 mps 737 mmHg 47%
    13:00 +27°C° 0 mm 1 mps 737 mmHg 46%
    14:00 +27°C° 0 mm 1 mps 737 mmHg 46%
    15:00 +27°C° 0 mm 2 mps 736 mmHg 46%
    16:00 +27°C° 0 mm 2 mps 736 mmHg 46%
    17:00 +26°C° 0 mm 1 mps 736 mmHg 52%
    18:00 +25°C° 0 mm 1 mps 736 mmHg 59%
    19:00 +24°C° 0 mm 1 mps 736 mmHg 65%
    20:00 +22°C° 0 mm 1 mps 736 mmHg 71%
    21:00 +20°C° 0 mm 1 mps 736 mmHg 76%
    22:00 +19°C° 0 mm 1 mps 736 mmHg 81%
    23:00 +18°C° 0 mm 1 mps 736 mmHg 83%

    26 July, Friday

    Time Temperature Precipitation Wind Pressure Humidity
    00:00 +15°C° 0 mm 0 mps 736 mmHg 85%
    01:00 +14°C° 0 mm 0 mps 736 mmHg 87%
    02:00 +14°C° 0 mm 0 mps 736 mmHg 88%
    03:00 +14°C° 0 mm 0 mps 736 mmHg 89%
    04:00 +13°C° 0 mm 0 mps 736 mmHg 89%
    05:00 +15°C° 0 mm 0 mps 736 mmHg 84%
    06:00 +17°C° 0 mm 0 mps 736 mmHg 78%
    07:00 +19°C° 0 mm 0 mps 736 mmHg 72%
    08:00 +23°C° 0 mm 1 mps 736 mmHg 66%
    09:00 +24°C° 0 mm 2 mps 735 mmHg 60%
    10:00 +26°C° 0 mm 3 mps 735 mmHg 54%
    11:00 +27°C° 0.1 mm 3 mps 735 mmHg 51%
    12:00 +27°C° 0.1 mm 3 mps 735 mmHg 48%
    13:00 +28°C° 0.1 mm 3 mps 735 mmHg 45%
    14:00 +28°C° 0.1 mm 3 mps 734 mmHg 45%
    15:00 +28°C° 0.1 mm 3 mps 734 mmHg 46%
    16:00 +28°C° 0.1 mm 3 mps 734 mmHg 46%
    17:00 +26°C° 0.1 mm 3 mps 733 mmHg 54%
    18:00 +25°C° 0.1 mm 2 mps 733 mmHg 63%
    19:00 +23°C° 0.1 mm 1 mps 733 mmHg 72%
    20:00 +21°C° 0 mm 1 mps 733 mmHg 78%
    21:00 +20°C° 0 mm 1 mps 732 mmHg 84%
    22:00 +18°C° 0 mm 1 mps 732 mmHg 91%
    23:00 +16°C° 0 mm 1 mps 732 mmHg 92%

    27 July, Saturday

    Time Temperature Precipitation Wind Pressure Humidity
    00:00 +16°C° 0 mm 1 mps 732 mmHg 93%
    01:00 +15°C° 0 mm 1 mps 731 mmHg 93%
    02:00 +15°C° 0 mm 1 mps 731 mmHg 94%
    03:00 +14°C° 0 mm 1 mps 731 mmHg 95%
    04:00 +14°C° 0 mm 1 mps 731 mmHg 95%
    05:00 +16°C° 0 mm 1 mps 731 mmHg 88%
    06:00 +18°C° 0 mm 1 mps 730 mmHg 82%
    07:00 +20°C° 0 mm 1 mps 730 mmHg 75%
    08:00 +21°C° 0 mm 1 mps 730 mmHg 68%
    09:00 +23°C° 0 mm 2 mps 729 mmHg 62%
    10:00 +24°C° 0 mm 3 mps 729 mmHg 56%
    11:00 +24°C° 0.1 mm 3 mps 729 mmHg 56%
    12:00 +25°C° 0.1 mm 3 mps 728 mmHg 56%
    13:00 +25°C° 0.1 mm 3 mps 728 mmHg 57%
    14:00 +24°C° 0.8 mm 2 mps 727 mmHg 65%
    15:00 +23°C° 0.8 mm 2 mps 726 mmHg 73%
    16:00 +23°C° 0.8 mm 2 mps 726 mmHg 81%
    17:00 +22°C° 0.4 mm 1 mps 725 mmHg 83%
    18:00 +21°C° 0.4 mm 1 mps 725 mmHg 85%
    19:00 +19°C° 0.4 mm 0 mps 724 mmHg 88%
    20:00 +19°C° 0.2 mm 1 mps 724 mmHg 89%
    21:00 +18°C° 0.2 mm 1 mps 723 mmHg 90%
    22:00 +16°C° 0.2 mm 1 mps 723 mmHg 92%
    23:00 +15°C° 0.4 mm 1 mps 722 mmHg 93%

    28 July, Sunday

    Time Temperature Precipitation Wind Pressure Humidity
    00:00 +15°C° 0.4 mm 1 mps 722 mmHg 95%
    01:00 +15°C° 0.4 mm 1 mps 721 mmHg 96%
    02:00 +14°C° 0 mm 1 mps 721 mmHg 97%
    03:00 +13°C° 0 mm 0 mps 720 mmHg 97%
    04:00 +12°C° 0 mm 0 mps 720 mmHg 98%
    05:00 +13°C° 0 mm 0 mps 720 mmHg 97%
    06:00 +15°C° 0 mm 1 mps 720 mmHg 96%
    07:00 +16°C° 0 mm 1 mps 719 mmHg 95%
    08:00 +18°C° 0.6 mm 1 mps 719 mmHg 92%
    09:00 +19°C° 0.6 mm 1 mps 719 mmHg 89%
    10:00 +20°C° 0.6 mm 1 mps 719 mmHg 86%
    11:00 +20°C° 1.1 mm 2 mps 718 mmHg 86%
    12:00 +20°C° 1.1 mm 2 mps 718 mmHg 86%
    13:00 +20°C° 1.1 mm 2 mps 718 mmHg 86%
    14:00 +20°C° 1.2 mm 2 mps 718 mmHg 88%
    15:00 +19°C° 1.2 mm 2 mps 718 mmHg 91%
    16:00 +20°C° 1.2 mm 1 mps 717 mmHg 93%
    17:00 +19°C° 1.2 mm 1 mps 717 mmHg 93%
    18:00 +17°C° 1.2 mm 2 mps 717 mmHg 94%
    19:00 +17°C° 1.2 mm 2 mps 717 mmHg 94%
    20:00 +16°C° 0.4 mm 2 mps 717 mmHg 95%
    21:00 +14°C° 0.4 mm 3 mps 716 mmHg 96%
    22:00 +13°C° 0.4 mm 4 mps 716 mmHg 97%
    23:00 +13°C° 0.1 mm 4 mps 716 mmHg 97%
    Show more